TimeCDT,TemperatureF,Dew PointF,Humidity,Sea Level PressureIn,VisibilityMPH,Wind Direction,Wind SpeedMPH,Gust SpeedMPH,PrecipitationIn,Events,Conditions,WindDirDegrees,DateUTC
12:15 AM,49.5,48.2,95,29.85,10.0,WNW,4.6,-,N/A,,Overcast,290,2013-07-28 05:15:00
12:35 AM,49.3,48.2,96,29.85,10.0,WNW,4.6,-,N/A,,Overcast,300,2013-07-28 05:35:00
12:55 AM,49.1,48.0,96,29.85,10.0,WNW,3.5,-,N/A,,Overcast,300,2013-07-28 05:55:00
1:15 AM,49.1,47.7,95,29.85,10.0,NW,4.6,-,N/A,,Overcast,310,2013-07-28 06:15:00
1:35 AM,49.1,47.7,95,29.85,10.0,WNW,3.5,-,N/A,,Overcast,300,2013-07-28 06:35:00
1:55 AM,48.9,47.8,96,29.85,10.0,WNW,3.5,-,N/A,,Overcast,300,2013-07-28 06:55:00
2:15 AM,49.1,47.8,95,29.85,10.0,NW,4.6,-,N/A,,Overcast,320,2013-07-28 07:15:00
2:35 AM,49.1,47.7,95,29.86,10.0,NW,3.5,-,N/A,,Overcast,310,2013-07-28 07:35:00
2:55 AM,49.1,47.5,94,29.86,10.0,NW,3.5,-,N/A,,Overcast,310,2013-07-28 07:55:00
3:15 AM,49.1,47.5,94,29.86,10.0,NW,4.6,-,N/A,,Overcast,310,2013-07-28 08:15:00
3:35 AM,49.1,47.3,93,29.85,10.0,NW,4.6,-,N/A,,Overcast,320,2013-07-28 08:35:00
3:55 AM,48.7,47.3,95,29.85,10.0,NNW,4.6,-,N/A,,Overcast,330,2013-07-28 08:55:00
4:15 AM,48.6,46.8,93,29.86,10.0,NW,5.8,-,N/A,,Overcast,310,2013-07-28 09:15:00
4:35 AM,48.4,46.6,93,29.86,10.0,NW,3.5,-,N/A,,Overcast,310,2013-07-28 09:35:00
4:55 AM,48.2,46.4,93,29.86,10.0,NW,3.5,-,N/A,,Overcast,310,2013-07-28 09:55:00
5:15 AM,48.2,46.4,93,29.87,10.0,Calm,Calm,-,N/A,,Overcast,0,2013-07-28 10:15:00
5:35 AM,48.2,46.8,95,29.86,10.0,West,5.8,-,N/A,,Overcast,270,2013-07-28 10:35:00
5:55 AM,47.8,46.0,93,29.87,10.0,WNW,4.6,-,N/A,,Overcast,290,2013-07-28 10:55:00
6:15 AM,47.5,44.8,90,29.88,10.0,WNW,5.8,-,N/A,,Overcast,300,2013-07-28 11:15:00
6:35 AM,46.8,44.1,90,29.89,10.0,WNW,4.6,-,N/A,,Mostly Cloudy,300,2013-07-28 11:35:00
6:55 AM,47.5,44.6,90,29.89,10.0,WNW,4.6,-,N/A,,Scattered Clouds,300,2013-07-28 11:55:00
7:15 AM,47.3,44.2,89,29.89,10.0,WNW,4.6,-,N/A,,Overcast,290,2013-07-28 12:15:00
7:35 AM,46.9,44.4,91,29.90,10.0,NW,4.6,-,N/A,,Overcast,310,2013-07-28 12:35:00
7:55 AM,47.7,45.0,90,29.89,10.0,WNW,6.9,-,N/A,,Overcast,290,2013-07-28 12:55:00
8:15 AM,48.0,45.5,91,29.90,10.0,West,5.8,-,N/A,,Overcast,270,2013-07-28 13:15:00
8:35 AM,48.6,45.7,90,29.90,10.0,WNW,3.5,-,N/A,,Overcast,290,2013-07-28 13:35:00
8:55 AM,49.3,46.6,90,29.90,10.0,WNW,3.5,-,N/A,,Overcast,290,2013-07-28 13:55:00
9:15 AM,50.9,46.8,86,29.90,10.0,WNW,6.9,-,N/A,,Overcast,300,2013-07-28 14:15:00
9:35 AM,52.0,47.1,83,29.90,10.0,NW,6.9,-,N/A,,Overcast,310,2013-07-28 14:35:00
9:55 AM,52.9,47.8,83,29.89,10.0,WNW,6.9,-,N/A,,Overcast,290,2013-07-28 14:55:00
10:15 AM,54.0,47.7,79,29.89,10.0,WNW,10.4,-,N/A,,Overcast,290,2013-07-28 15:15:00
10:35 AM,54.1,48.0,80,29.90,10.0,West,6.9,-,N/A,,Overcast,280,2013-07-28 15:35:00
10:55 AM,54.5,48.2,79,29.90,10.0,West,5.8,-,N/A,,Overcast,280,2013-07-28 15:55:00
11:15 AM,54.7,48.4,79,29.91,10.0,WNW,6.9,-,N/A,,Overcast,300,2013-07-28 16:15:00
11:35 AM,55.6,48.4,77,29.91,10.0,WNW,5.8,-,N/A,,Overcast,290,2013-07-28 16:35:00
11:55 AM,56.7,49.1,76,29.91,10.0,NW,5.8,-,N/A,,Overcast,310,2013-07-28 16:55:00
12:15 PM,57.9,48.7,71,29.91,10.0,NW,11.5,-,N/A,,Overcast,310,2013-07-28 17:15:00
12:35 PM,59.0,48.6,68,29.91,10.0,WNW,8.1,-,N/A,,Overcast,300,2013-07-28 17:35:00
12:55 PM,60.1,48.9,67,29.91,10.0,WNW,6.9,-,N/A,,Overcast,290,2013-07-28 17:55:00
1:15 PM,61.7,49.3,64,29.90,10.0,West,10.4,17.3,N/A,,Overcast,270,2013-07-28 18:15:00
1:35 PM,63.9,49.8,60,29.90,10.0,West,11.5,16.1,N/A,,Overcast,270,2013-07-28 18:35:00
1:55 PM,61.5,49.3,64,29.90,10.0,West,9.2,-,N/A,,Overcast,280,2013-07-28 18:55:00
2:15 PM,63.3,49.6,61,29.90,10.0,West,13.8,20.7,N/A,,Overcast,260,2013-07-28 19:15:00
2:35 PM,63.1,50.4,63,29.90,10.0,WSW,13.8,20.7,N/A,,Mostly Cloudy,250,2013-07-28 19:35:00
2:55 PM,63.5,48.7,59,29.91,10.0,West,17.3,25.3,N/A,,Mostly Cloudy,280,2013-07-28 19:55:00
3:15 PM,61.9,49.3,63,29.91,10.0,West,15.0,21.9,N/A,,Overcast,260,2013-07-28 20:15:00
3:35 PM,61.9,50.2,65,29.91,10.0,West,12.7,20.7,N/A,,Overcast,280,2013-07-28 20:35:00
3:55 PM,64.6,50.4,60,29.91,10.0,West,16.1,24.2,N/A,,Overcast,280,2013-07-28 20:55:00
4:15 PM,62.4,49.5,63,29.92,10.0,West,13.8,20.7,N/A,,Overcast,280,2013-07-28 21:15:00
4:35 PM,61.7,49.6,65,29.93,10.0,WNW,10.4,16.1,N/A,,Overcast,290,2013-07-28 21:35:00
4:55 PM,61.0,49.5,66,29.93,10.0,WNW,12.7,16.1,N/A,,Overcast,290,2013-07-28 21:55:00
5:15 PM,60.4,49.8,68,29.94,10.0,WNW,9.2,17.3,N/A,,Overcast,300,2013-07-28 22:15:00
5:35 PM,59.9,50.0,70,29.95,10.0,WNW,10.4,17.3,N/A,,Overcast,300,2013-07-28 22:35:00
5:55 PM,60.1,49.8,69,29.95,10.0,NW,10.4,21.9,N/A,,Overcast,320,2013-07-28 22:55:00
6:15 PM,59.4,50.4,72,29.96,10.0,WNW,11.5,18.4,N/A,,Overcast,300,2013-07-28 23:15:00
6:35 PM,57.6,50.4,77,29.96,10.0,NW,10.4,20.7,N/A,,Overcast,310,2013-07-28 23:35:00
6:55 PM,57.4,51.3,80,29.96,10.0,NW,6.9,17.3,N/A,,Overcast,310,2013-07-28 23:55:00
7:15 PM,58.3,50.0,74,29.97,10.0,NW,9.2,16.1,N/A,,Overcast,310,2013-07-29 00:15:00
7:35 PM,58.5,50.2,74,29.97,10.0,WNW,8.1,-,N/A,,Overcast,300,2013-07-29 00:35:00
7:55 PM,58.1,50.4,75,29.97,10.0,WNW,5.8,-,N/A,,Overcast,290,2013-07-29 00:55:00
8:15 PM,58.1,50.5,76,29.98,10.0,NW,5.8,-,N/A,,Overcast,310,2013-07-29 01:15:00
8:35 PM,57.4,51.1,79,29.99,10.0,NW,3.5,-,N/A,Rain,Light Rain,320,2013-07-29 01:35:00
8:55 PM,57.6,50.2,76,29.99,10.0,NW,8.1,-,N/A,,Overcast,320,2013-07-29 01:55:00
9:15 PM,57.4,50.0,76,30.01,10.0,NW,8.1,-,N/A,,Overcast,310,2013-07-29 02:15:00
9:35 PM,57.4,50.0,76,30.01,10.0,NNW,8.1,-,N/A,,Overcast,330,2013-07-29 02:35:00
9:55 PM,57.2,50.2,77,30.01,10.0,WNW,3.5,-,N/A,,Overcast,300,2013-07-29 02:55:00
10:15 PM,56.8,50.4,79,30.02,10.0,NW,5.8,-,N/A,,Overcast,320,2013-07-29 03:15:00
10:35 PM,56.8,50.4,79,30.02,10.0,NW,6.9,-,N/A,,Overcast,320,2013-07-29 03:35:00
10:55 PM,56.5,50.4,80,30.02,10.0,NW,6.9,-,N/A,,Mostly Cloudy,310,2013-07-29 03:55:00
11:15 PM,55.6,50.0,81,30.02,10.0,NW,6.9,-,N/A,,Scattered Clouds,310,2013-07-29 04:15:00
11:35 PM,55.0,49.5,81,30.03,10.0,WNW,8.1,-,N/A,,Clear,300,2013-07-29 04:35:00
11:55 PM,54.7,48.4,79,30.02,10.0,NW,8.1,-,N/A,,Scattered Clouds,320,2013-07-29 04:55:00